{"data":{"norad_id":53408,"intl_designator":"2022-097W","name":"STARLINK-4491","alt_names":[],"object_type":"PAYLOAD","status":"ACTIVE","operator":null,"country":"US","launch_date":"2022-08-10","launch_site_code":"AFETR","launch_vehicle":null,"mission":null,"orbit_class":"UNKNOWN","rcs_meters":null,"size_class":null,"mass_kg":null,"dimensions":null,"purposes":["comms"],"wikipedia_slug":null,"has_3d_model":false,"image_url":null,"decayed_at":null,"tle_current":{"epoch":"2026-09-20T04:00:03.000096Z","epoch_age_seconds":104205,"freshness":"FRESH","line1":"1 53408U 22097W   26263.16670139  .00057594  00000+0  24875-2 0  9999","line2":"2 53408  53.1612 319.5181 0002058 112.7404 206.2012 15.21968946  5786","mean_motion":15.21968946,"eccentricity":0.0002058,"inclination_deg":53.1612,"raan_deg":319.5181,"arg_perigee_deg":112.7404,"mean_anomaly_deg":206.2012,"bstar":0.0024875,"rev_number":578,"period_min":94.61428262282,"perigee_km":498.48670724815,"apogee_km":501.31770818604,"semimajor_km":6878.0392077171,"source":"CELESTRAK","updated_at":"2026-09-20T09:00:40.226923Z"}}}